Orbital elements: 2009 HL21 Earth MOID = 0.0107 AU Epoch 2009 June 18.0 TT = JDT 2455000.5 MPC M 47.76659 (2000.0) P Q n 0.45241772 Peri. 2.50534 -0.88806953 -0.45961646 a 1.6805173 Node 150.12678 +0.42145199 -0.82201989 e 0.4546862 Incl. 1.06195 +0.18360480 -0.33620828 P 2.18 H 22.4 G 0.15 U 8